Station Historical Data
Daily Summary for June 27, 2017 Units:  English    Metric   Both
Next Day »
Daily Weekly Monthly Yearly Custom
  High: Low: Average:
Temperature: 82.7 °F 63.8 °F 71.5 °F
Dew Point: 58.8 °F 41.2 °F 51 °F
Humidity: 65% 38% 49%
Wind Speed: 12.0mph 0.0mph 2.7mph
Wind Gust: 16.0mph - -
Wind- - SE
Pressure: 29.91 in 29.84 in -
Precipitation: 0.00 in    
Historical Graphs
 
 
Tabular Data for June 27, 2017
Time Temperature Dew Point Pressure Wind Wind Speed Wind Gust Humidity Rainfall Rate (Hourly) solar Conditions
00:04 66.6 °F 51.4 °F 29.91 in ESE 4.0 mph 14.0 mph 58% 0.00 in 0.00 W/m2
00:09 66.7 °F 51.0 °F 29.91 in ESE 12.0 mph 12.0 mph 57% 0.00 in 0.00 W/m2
00:14 66.7 °F 50.5 °F 29.91 in ESE 6.0 mph 12.0 mph 56% 0.00 in 0.00 W/m2
00:19 66.7 °F 50.5 °F 29.91 in ESE 8.0 mph 12.0 mph 56% 0.00 in 0.00 W/m2
00:24 66.7 °F 50.5 °F 29.91 in ESE 9.0 mph 12.0 mph 56% 0.00 in 0.00 W/m2
00:29 66.7 °F 50.0 °F 29.91 in East 5.0 mph 11.0 mph 55% 0.00 in 0.00 W/m2
00:34 66.8 °F 50.1 °F 29.91 in ESE 7.0 mph 11.0 mph 55% 0.00 in 0.00 W/m2
00:39 66.8 °F 50.1 °F 29.91 in ESE 7.0 mph 12.0 mph 55% 0.00 in 0.00 W/m2
00:44 66.8 °F 50.1 °F 29.91 in Calm   15.0 mph 55% 0.00 in 0.00 W/m2
00:49 66.8 °F 50.1 °F 29.90 in Calm   13.0 mph 55% 0.00 in 0.00 W/m2
00:54 66.7 °F 50.0 °F 29.90 in ESE 7.0 mph 14.0 mph 55% 0.00 in 0.00 W/m2
00:59 66.7 °F 50.0 °F 29.90 in East 4.0 mph 13.0 mph 55% 0.00 in 0.00 W/m2
01:04 66.7 °F 50.0 °F 29.90 in ESE 2.0 mph 12.0 mph 55% 0.00 in 0.00 W/m2
01:09 66.6 °F 50.0 °F 29.90 in ESE 2.0 mph 15.0 mph 55% 0.00 in 0.00 W/m2
01:14 66.6 °F 50.0 °F 29.90 in ESE 4.0 mph 16.0 mph 55% 0.00 in 0.00 W/m2
01:19 66.5 °F 49.4 °F 29.90 in ESE 11.0 mph 15.0 mph 54% 0.00 in 0.00 W/m2
01:24 66.5 °F 49.8 °F 29.90 in Calm   14.0 mph 55% 0.00 in 0.00 W/m2
01:29 66.5 °F 49.4 °F 29.89 in ESE 2.0 mph 13.0 mph 54% 0.00 in 0.00 W/m2
01:34 66.5 °F 49.8 °F 29.89 in East 1.0 mph 15.0 mph 55% 0.00 in 0.00 W/m2
01:39 66.4 °F 49.3 °F 29.89 in ESE 7.0 mph 14.0 mph 54% 0.00 in 0.00 W/m2
01:40 66.4 °F 49.3 °F 29.89 in ESE 9.0 mph 14.0 mph 54% 0.00 in 0.00 W/m2
01:45 66.3 °F 49.2 °F 29.89 in East 12.0 mph 14.0 mph 54% 0.00 in 0.00 W/m2
01:50 66.3 °F 49.2 °F 29.89 in East 8.0 mph 13.0 mph 54% 0.00 in 0.00 W/m2
01:55 66.2 °F 48.6 °F 29.89 in ESE 2.0 mph 14.0 mph 53% 0.00 in 0.00 W/m2
01:57 66.2 °F 49.1 °F 29.89 in Calm   15.0 mph 54% 0.00 in 0.00 W/m2
02:02 66.2 °F 49.1 °F 29.89 in ESE 8.0 mph 11.0 mph 54% 0.00 in 0.00 W/m2
02:07 66.2 °F 49.1 °F 29.89 in ESE 4.0 mph 8.0 mph 54% 0.00 in 0.00 W/m2
02:12 66.1 °F 48.5 °F 29.89 in ESE 5.0 mph 11.0 mph 53% 0.00 in 0.00 W/m2
02:17 66.1 °F 48.5 °F 29.89 in ESE 9.0 mph 15.0 mph 53% 0.00 in 0.00 W/m2
02:22 66.1 °F 48.5 °F 29.89 in East 4.0 mph 13.0 mph 53% 0.00 in 0.00 W/m2
02:27 66.0 °F 48.4 °F 29.89 in ESE 6.0 mph 12.0 mph 53% 0.00 in 0.00 W/m2
02:32 66.0 °F 47.9 °F 29.89 in East 11.0 mph 11.0 mph 52% 0.00 in 0.00 W/m2
02:37 65.9 °F 47.3 °F 29.89 in East 5.0 mph 12.0 mph 51% 0.00 in 0.00 W/m2
02:42 65.9 °F 48.3 °F 29.89 in ESE 9.0 mph 13.0 mph 53% 0.00 in 0.00 W/m2
02:47 65.9 °F 47.8 °F 29.89 in ESE 7.0 mph 9.0 mph 52% 0.00 in 0.00 W/m2
02:52 65.8 °F 47.7 °F 29.89 in ESE 1.0 mph 11.0 mph 52% 0.00 in 0.00 W/m2
02:57 65.7 °F 47.6 °F 29.89 in ESE 4.0 mph 13.0 mph 52% 0.00 in 0.00 W/m2
03:02 65.7 °F 47.6 °F 29.89 in ESE 12.0 mph 12.0 mph 52% 0.00 in 0.00 W/m2
03:07 65.6 °F 47.5 °F 29.88 in ESE 7.0 mph 13.0 mph 52% 0.00 in 0.00 W/m2
03:12 65.6 °F 47.5 °F 29.88 in Calm   11.0 mph 52% 0.00 in 0.00 W/m2
03:17 65.5 °F 46.4 °F 29.88 in East 6.0 mph 13.0 mph 50% 0.00 in 0.00 W/m2
03:22 65.5 °F 46.9 °F 29.88 in ESE 1.0 mph 15.0 mph 51% 0.00 in 0.00 W/m2
03:27 65.4 °F 46.8 °F 29.88 in ESE 9.0 mph 16.0 mph 51% 0.00 in 0.00 W/m2
03:32 65.4 °F 46.8 °F 29.88 in ESE 9.0 mph 9.0 mph 51% 0.00 in 0.00 W/m2
03:38 65.3 °F 45.7 °F 29.88 in ESE 4.0 mph 11.0 mph 49% 0.00 in 0.00 W/m2
03:43 65.3 °F 45.7 °F 29.88 in Calm   13.0 mph 49% 0.00 in 0.00 W/m2
03:48 65.3 °F 45.7 °F 29.88 in East 2.0 mph 13.0 mph 49% 0.00 in 0.00 W/m2
03:53 65.3 °F 45.7 °F 29.88 in ESE 2.0 mph 12.0 mph 49% 0.00 in 0.00 W/m2
03:59 65.2 °F 45.6 °F 29.88 in ESE 4.0 mph 13.0 mph 49% 0.00 in 0.00 W/m2
04:04 65.2 °F 46.1 °F 29.88 in ESE 2.0 mph 13.0 mph 50% 0.00 in 0.00 W/m2
04:09 65.1 °F 44.9 °F 29.88 in ESE 9.0 mph 15.0 mph 48% 0.00 in 0.00 W/m2
04:14 65.0 °F 45.4 °F 29.88 in ESE 6.0 mph 13.0 mph 49% 0.00 in 0.00 W/m2
04:19 64.9 °F 44.2 °F 29.88 in ESE 1.0 mph 13.0 mph 47% 0.00 in 0.00 W/m2
04:24 64.9 °F 44.8 °F 29.88 in Calm   9.0 mph 48% 0.00 in 0.00 W/m2
04:25 64.9 °F 44.8 °F 29.87 in ESE 2.0 mph 9.0 mph 48% 0.00 in 0.00 W/m2
04:30 64.9 °F 44.2 °F 29.87 in Calm   14.0 mph 47% 0.00 in 0.00 W/m2
04:35 64.8 °F 44.1 °F 29.87 in East 2.0 mph 16.0 mph 47% 0.00 in 0.00 W/m2
04:40 64.7 °F 43.5 °F 29.88 in ESE 4.0 mph 15.0 mph 46% 0.00 in 0.00 W/m2
04:45 64.7 °F 43.5 °F 29.88 in ESE 9.0 mph 13.0 mph 46% 0.00 in 0.00 W/m2
04:50 64.7 °F 43.5 °F 29.88 in ESE 1.0 mph 13.0 mph 46% 0.00 in 0.00 W/m2
04:55 64.7 °F 43.5 °F 29.88 in East 7.0 mph 12.0 mph 46% 0.00 in 0.00 W/m2
05:00 64.7 °F 42.9 °F 29.88 in East 1.0 mph 15.0 mph 45% 0.00 in 0.00 W/m2
05:05 64.6 °F 42.8 °F 29.88 in ESE 8.0 mph 14.0 mph 45% 0.00 in 0.00 W/m2
05:10 64.6 °F 43.4 °F 29.88 in East 9.0 mph 11.0 mph 46% 0.00 in 0.00 W/m2
05:15 64.6 °F 42.8 °F 29.88 in ESE 7.0 mph 14.0 mph 45% 0.00 in 0.00 W/m2
05:20 64.5 °F 42.7 °F 29.88 in East 4.0 mph 12.0 mph 45% 0.00 in 0.00 W/m2
05:25 64.5 °F 42.7 °F 29.88 in East 4.0 mph 9.0 mph 45% 0.00 in 0.00 W/m2
05:30 64.4 °F 42.6 °F 29.88 in ESE 4.0 mph 15.0 mph 45% 0.00 in 0.00 W/m2
05:35 64.3 °F 43.1 °F 29.88 in East 4.0 mph 13.0 mph 46% 0.00 in 0.00 W/m2
05:40 64.3 °F 41.9 °F 29.88 in East 6.0 mph 12.0 mph 44% 0.00 in 5.00 W/m2
05:45 64.2 °F 41.8 °F 29.88 in East 5.0 mph 12.0 mph 44% 0.00 in 7.00 W/m2
05:50 64.1 °F 41.8 °F 29.88 in East 8.0 mph 11.0 mph 44% 0.00 in 9.00 W/m2
05:55 64.1 °F 41.8 °F 29.88 in ESE 1.0 mph 13.0 mph 44% 0.00 in 12.00 W/m2
06:00 64.1 °F 41.2 °F 29.88 in Calm   13.0 mph 43% 0.00 in 14.00 W/m2
06:05 64.1 °F 41.2 °F 29.88 in ESE 11.0 mph 12.0 mph 43% 0.00 in 16.00 W/m2
06:10 64.1 °F 41.8 °F 29.88 in ESE 8.0 mph 9.0 mph 44% 0.00 in 16.00 W/m2
06:16 64.1 °F 41.2 °F 29.88 in East 4.0 mph 13.0 mph 43% 0.00 in 19.00 W/m2
06:21 64.1 °F 41.2 °F 29.88 in ESE 2.0 mph 2.0 mph 43% 0.00 in 37.00 W/m2
06:26 64.1 °F 41.8 °F 29.88 in ESE 9.0 mph 9.0 mph 44% 0.00 in 49.00 W/m2
06:31 64.0 °F 41.7 °F 29.88 in ESE 4.0 mph 8.0 mph 44% 0.00 in 63.00 W/m2
06:36 64.0 °F 41.7 °F 29.88 in East 6.0 mph 8.0 mph 44% 0.00 in 77.00 W/m2
06:41 64.0 °F 42.3 °F 29.88 in East 6.0 mph 8.0 mph 45% 0.00 in 95.00 W/m2
06:46 64.0 °F 41.7 °F 29.88 in ESE 4.0 mph 11.0 mph 44% 0.00 in 113.00 W/m2
06:51 63.9 °F 41.6 °F 29.89 in Calm   1.0 mph 44% 0.00 in 130.00 W/m2
06:56 63.9 °F 41.6 °F 29.89 in ESE 6.0 mph 6.0 mph 44% 0.00 in 149.00 W/m2
07:01 63.9 °F 42.2 °F 29.88 in East 7.0 mph 13.0 mph 45% 0.00 in 165.00 W/m2
07:06 63.9 °F 42.7 °F 29.89 in ESE 4.0 mph 7.0 mph 46% 0.00 in 185.00 W/m2
07:11 63.9 °F 42.7 °F 29.89 in East 4.0 mph 6.0 mph 46% 0.00 in 204.00 W/m2
07:16 63.8 °F 42.6 °F 29.89 in ESE 7.0 mph 8.0 mph 46% 0.00 in 227.00 W/m2
07:21 63.8 °F 43.2 °F 29.89 in ESE 5.0 mph 5.0 mph 47% 0.00 in 244.00 W/m2
07:26 63.8 °F 42.6 °F 29.89 in ESE 5.0 mph 7.0 mph 46% 0.00 in 265.00 W/m2
07:31 63.9 °F 43.3 °F 29.89 in ESE 5.0 mph 5.0 mph 47% 0.00 in 283.00 W/m2
07:36 63.9 °F 43.3 °F 29.89 in ESE 2.0 mph 7.0 mph 47% 0.00 in 302.00 W/m2
07:41 64.0 °F 43.4 °F 29.89 in Calm   4.0 mph 47% 0.00 in 320.00 W/m2
07:46 64.1 °F 44.0 °F 29.89 in ESE 5.0 mph 5.0 mph 48% 0.00 in 336.00 W/m2
07:51 64.2 °F 44.7 °F 29.89 in East 6.0 mph 6.0 mph 49% 0.00 in 346.00 W/m2
07:56 64.3 °F 45.3 °F 29.89 in Calm   2.0 mph 50% 0.00 in 364.00 W/m2
08:01 64.5 °F 45.5 °F 29.89 in Calm     50% 0.00 in 381.00 W/m2
08:06 64.6 °F 46.1 °F 29.89 in Calm     51% 0.00 in 397.00 W/m2
08:11 64.7 °F 46.7 °F 29.89 in Calm   4.0 mph 52% 0.00 in 413.00 W/m2
08:16 64.8 °F 46.8 °F 29.89 in Calm     52% 0.00 in 431.00 W/m2
08:21 65.0 °F 47.5 °F 29.89 in Calm     53% 0.00 in 445.00 W/m2
08:26 65.2 °F 47.7 °F 29.89 in Calm   1.0 mph 53% 0.00 in 462.00 W/m2
08:31 65.3 °F 48.2 °F 29.89 in Calm     54% 0.00 in 476.00 W/m2
08:36 65.6 °F 49.0 °F 29.89 in Calm     55% 0.00 in 494.00 W/m2
08:42 65.9 °F 49.3 °F 29.89 in Calm   2.0 mph 55% 0.00 in 506.00 W/m2
08:47 66.1 °F 50.4 °F 29.89 in Calm     57% 0.00 in 522.00 W/m2
08:52 66.5 °F 51.3 °F 29.89 in Calm     58% 0.00 in 538.00 W/m2
08:57 66.7 °F 51.0 °F 29.89 in Calm   1.0 mph 57% 0.00 in 552.00 W/m2
09:02 67.1 °F 51.4 °F 29.89 in Calm     57% 0.00 in 568.00 W/m2
09:07 67.4 °F 51.7 °F 29.89 in Calm   4.0 mph 57% 0.00 in 582.00 W/m2
09:12 67.7 °F 51.9 °F 29.90 in Calm     57% 0.00 in 598.00 W/m2
09:17 68.0 °F 51.7 °F 29.90 in Calm     56% 0.00 in 612.00 W/m2
09:22 68.2 °F 50.4 °F 29.90 in Calm   1.0 mph 53% 0.00 in 626.00 W/m2
09:27 68.5 °F 50.7 °F 29.90 in Calm     53% 0.00 in 638.00 W/m2
09:32 68.7 °F 50.4 °F 29.90 in ESE 1.0 mph 5.0 mph 52% 0.00 in 652.00 W/m2
09:37 68.8 °F 47.8 °F 29.90 in Calm   1.0 mph 47% 0.00 in 666.00 W/m2
09:42 69.2 °F 47.0 °F 29.90 in ESE 2.0 mph 2.0 mph 45% 0.00 in 679.00 W/m2
09:47 69.7 °F 49.2 °F 29.90 in Calm     48% 0.00 in 691.00 W/m2
09:52 70.2 °F 49.6 °F 29.90 in ESE 5.0 mph 5.0 mph 48% 0.00 in 705.00 W/m2
09:57 70.5 °F 48.2 °F 29.90 in Calm   1.0 mph 45% 0.00 in 717.00 W/m2
10:02 70.8 °F 48.4 °F 29.90 in Calm     45% 0.00 in 728.00 W/m2
10:07 71.1 °F 49.3 °F 29.90 in Calm     46% 0.00 in 740.00 W/m2
10:08 71.1 °F 49.3 °F 29.90 in Calm     46% 0.00 in 740.00 W/m2
10:13 71.5 °F 50.2 °F 29.89 in ESE 1.0 mph 1.0 mph 47% 0.00 in 752.00 W/m2
10:18 72.0 °F 50.1 °F 29.89 in ESE 4.0 mph 5.0 mph 46% 0.00 in 765.00 W/m2
10:23 72.5 °F 49.4 °F 29.90 in Calm   4.0 mph 44% 0.00 in 779.00 W/m2
10:28 73.0 °F 49.2 °F 29.89 in Calm   5.0 mph 43% 0.00 in 789.00 W/m2
10:33 73.4 °F 51.4 °F 29.89 in ESE 5.0 mph 7.0 mph 46% 0.00 in 798.00 W/m2
10:38 73.8 °F 49.3 °F 29.89 in ESE 1.0 mph 1.0 mph 42% 0.00 in 810.00 W/m2
10:43 74.2 °F 50.9 °F 29.90 in Calm   7.0 mph 44% 0.00 in 819.00 W/m2
10:48 74.7 °F 50.1 °F 29.89 in SE 1.0 mph 2.0 mph 42% 0.00 in 830.00 W/m2
10:53 75.1 °F 51.7 °F 29.90 in Calm   4.0 mph 44% 0.00 in 837.00 W/m2
10:58 75.6 °F 52.8 °F 29.89 in Calm   1.0 mph 45% 0.00 in 847.00 W/m2
11:03 76.0 °F 52.5 °F 29.89 in Calm   8.0 mph 44% 0.00 in 856.00 W/m2
11:08 76.3 °F 54.0 °F 29.89 in Calm   4.0 mph 46% 0.00 in 865.00 W/m2
11:09 76.3 °F 54.0 °F 29.89 in Calm   4.0 mph 46% 0.00 in 865.00 W/m2
11:13 76.6 °F 51.8 °F 29.89 in Calm   7.0 mph 42% 0.00 in 874.00 W/m2
11:18 76.9 °F 52.1 °F 29.89 in SSE 1.0 mph 6.0 mph 42% 0.00 in 881.00 W/m2
11:23 77.2 °F 53.0 °F 29.89 in SSE 5.0 mph 8.0 mph 43% 0.00 in 889.00 W/m2
11:24 77.2 °F 53.0 °F 29.89 in South 7.0 mph 8.0 mph 43% 0.00 in 891.00 W/m2
11:29 77.5 °F 52.6 °F 29.89 in South 4.0 mph 5.0 mph 42% 0.00 in 895.00 W/m2
11:34 77.8 °F 52.9 °F 29.89 in South 4.0 mph 8.0 mph 42% 0.00 in 904.00 W/m2
11:39 78.1 °F 53.2 °F 29.90 in SSW 6.0 mph 8.0 mph 42% 0.00 in 907.00 W/m2
11:44 78.5 °F 53.5 °F 29.89 in Calm   6.0 mph 42% 0.00 in 912.00 W/m2
11:49 78.7 °F 53.7 °F 29.89 in Calm   5.0 mph 42% 0.00 in 918.00 W/m2
11:54 79.0 °F 54.6 °F 29.90 in Calm   10.0 mph 43% 0.00 in 921.00 W/m2
11:59 79.1 °F 55.3 °F 29.89 in SSW 6.0 mph 7.0 mph 44% 0.00 in 926.00 W/m2
12:04 79.1 °F 54.1 °F 29.89 in SW 1.0 mph 8.0 mph 42% 0.00 in 933.00 W/m2
12:09 79.1 °F 54.1 °F 29.89 in WSW 1.0 mph 5.0 mph 42% 0.00 in 937.00 W/m2
12:14 79.2 °F 53.5 °F 29.89 in Calm   10.0 mph 41% 0.00 in 940.00 W/m2
12:20 79.4 °F 54.3 °F 29.89 in SSW 7.0 mph 9.0 mph 42% 0.00 in 944.00 W/m2
12:25 79.7 °F 55.2 °F 29.89 in South 5.0 mph 8.0 mph 43% 0.00 in 947.00 W/m2
12:30 80.1 °F 55.0 °F 29.89 in Calm   5.0 mph 42% 0.00 in 946.00 W/m2
12:35 80.4 °F 55.2 °F 29.89 in West 3.0 mph 8.0 mph 42% 0.00 in 949.00 W/m2
12:40 80.6 °F 54.8 °F 29.89 in Calm   4.0 mph 41% 0.00 in 951.00 W/m2
12:45 80.4 °F 55.2 °F 29.89 in Calm   9.0 mph 42% 0.00 in 954.00 W/m2
12:50 80.6 °F 55.4 °F 29.89 in WSW 3.0 mph 12.0 mph 42% 0.00 in 954.00 W/m2
12:55 80.3 °F 55.8 °F 29.89 in West 3.0 mph 7.0 mph 43% 0.00 in 954.00 W/m2
13:00 80.0 °F 55.5 °F 29.89 in Calm   8.0 mph 43% 0.00 in 953.00 W/m2
13:05 79.8 °F 56.0 °F 29.89 in Calm   9.0 mph 44% 0.00 in 954.00 W/m2
13:10 80.0 °F 56.2 °F 29.89 in SW 4.0 mph 9.0 mph 44% 0.00 in 951.00 W/m2
13:15 80.3 °F 57.7 °F 29.89 in Calm   8.0 mph 46% 0.00 in 953.00 W/m2
13:20 80.6 °F 57.3 °F 29.89 in SW 4.0 mph 8.0 mph 45% 0.00 in 951.00 W/m2
13:25 80.9 °F 57.6 °F 29.89 in WSW 1.0 mph 8.0 mph 45% 0.00 in 947.00 W/m2
13:30 80.8 °F 57.5 °F 29.89 in SW 5.0 mph 10.0 mph 45% 0.00 in 944.00 W/m2
13:35 80.9 °F 58.8 °F 29.88 in SW 3.0 mph 7.0 mph 47% 0.00 in 942.00 W/m2
13:40 81.1 °F 57.8 °F 29.89 in SSW 3.0 mph 12.0 mph 45% 0.00 in 940.00 W/m2
13:45 81.5 °F 56.9 °F 29.89 in SSW 4.0 mph 13.0 mph 43% 0.00 in 942.00 W/m2
13:50 81.9 °F 55.9 °F 29.89 in SSW 7.0 mph 10.0 mph 41% 0.00 in 937.00 W/m2
13:55 82.3 °F 56.3 °F 29.89 in SW 3.0 mph 8.0 mph 41% 0.00 in 933.00 W/m2
14:00 82.4 °F 56.4 °F 29.89 in Calm   10.0 mph 41% 0.00 in 930.00 W/m2
14:05 82.4 °F 57.0 °F 29.89 in SW 6.0 mph 9.0 mph 42% 0.00 in 928.00 W/m2
14:10 82.5 °F 55.1 °F 29.88 in SSW 6.0 mph 9.0 mph 39% 0.00 in 921.00 W/m2
14:15 82.7 °F 55.2 °F 29.88 in WSW 5.0 mph 8.0 mph 39% 0.00 in 919.00 W/m2
14:20 82.3 °F 55.6 °F 29.88 in Calm   8.0 mph 40% 0.00 in 909.00 W/m2
14:25 81.9 °F 55.9 °F 29.88 in West 3.0 mph 11.0 mph 41% 0.00 in 904.00 W/m2
14:30 81.5 °F 55.5 °F 29.88 in Calm   9.0 mph 41% 0.00 in 896.00 W/m2
14:35 81.4 °F 56.1 °F 29.88 in SW 6.0 mph 10.0 mph 42% 0.00 in 893.00 W/m2
14:40 81.6 °F 55.6 °F 29.88 in SSW 5.0 mph 14.0 mph 41% 0.00 in 886.00 W/m2
14:45 81.6 °F 55.6 °F 29.88 in Calm   8.0 mph 41% 0.00 in 875.00 W/m2
14:50 81.4 °F 56.1 °F 29.88 in SSW 8.0 mph 9.0 mph 42% 0.00 in 870.00 W/m2
14:55 81.4 °F 55.5 °F 29.88 in Calm   10.0 mph 41% 0.00 in 863.00 W/m2
14:58 81.2 °F 55.3 °F 29.88 in Calm   8.0 mph 41% 0.00 in 856.00 W/m2
15:03 80.9 °F 55.7 °F 29.88 in SW 4.0 mph 8.0 mph 42% 0.00 in 851.00 W/m2
15:08 80.5 °F 53.3 °F 29.88 in Calm   7.0 mph 39% 0.00 in 842.00 W/m2
15:13 80.5 °F 55.3 °F 29.88 in Calm   10.0 mph 42% 0.00 in 833.00 W/m2
15:26 80.9 °F 55.0 °F 29.87 in SW 6.0 mph 6.0 mph 41% 0.00 in 812.00 W/m2
15:31 81.1 °F 55.2 °F 29.87 in SW 6.0 mph 6.0 mph 41% 0.00 in 800.00 W/m2
15:36 81.2 °F 55.3 °F 29.87 in Calm     41% 0.00 in 789.00 W/m2
15:41 81.3 °F 54.0 °F 29.87 in WSW 1.0 mph 1.0 mph 39% 0.00 in 777.00 W/m2
15:46 81.4 °F 55.5 °F 29.87 in SW 8.0 mph 8.0 mph 41% 0.00 in 766.00 W/m2
15:51 81.4 °F 55.5 °F 29.87 in Calm   6.0 mph 41% 0.00 in 756.00 W/m2
15:56 81.4 °F 54.8 °F 29.87 in Calm   3.0 mph 40% 0.00 in 742.00 W/m2
16:01 81.3 °F 54.0 °F 29.87 in SSW 6.0 mph 6.0 mph 39% 0.00 in 733.00 W/m2
16:06 81.3 °F 54.7 °F 29.87 in SSW 1.0 mph 1.0 mph 40% 0.00 in 719.00 W/m2
16:11 81.3 °F 54.7 °F 29.87 in Calm   4.0 mph 40% 0.00 in 707.00 W/m2
16:16 81.2 °F 53.9 °F 29.87 in SSW 6.0 mph 10.0 mph 39% 0.00 in 694.00 W/m2
16:21 81.2 °F 53.9 °F 29.86 in Calm   6.0 mph 39% 0.00 in 679.00 W/m2
16:26 81.2 °F 54.6 °F 29.86 in Calm     40% 0.00 in 670.00 W/m2
16:31 81.1 °F 54.5 °F 29.86 in South 7.0 mph 12.0 mph 40% 0.00 in 656.00 W/m2
16:36 81.0 °F 53.7 °F 29.86 in South 4.0 mph 8.0 mph 39% 0.00 in 642.00 W/m2
16:41 80.9 °F 53.7 °F 29.86 in SSW 4.0 mph 11.0 mph 39% 0.00 in 629.00 W/m2
16:46 80.8 °F 52.8 °F 29.86 in Calm   7.0 mph 38% 0.00 in 613.00 W/m2
16:51 80.6 °F 53.4 °F 29.86 in Calm   6.0 mph 39% 0.00 in 603.00 W/m2
16:56 80.4 °F 53.9 °F 29.86 in WSW 6.0 mph 8.0 mph 40% 0.00 in 584.00 W/m2
17:01 80.2 °F 54.4 °F 29.86 in SW 3.0 mph 7.0 mph 41% 0.00 in 570.00 W/m2
17:07 80.0 °F 54.2 °F 29.86 in Calm   6.0 mph 41% 0.00 in 557.00 W/m2
17:12 79.9 °F 54.1 °F 29.86 in SW 7.0 mph 8.0 mph 41% 0.00 in 543.00 W/m2
17:17 79.8 °F 53.4 °F 29.86 in WSW 9.0 mph 9.0 mph 40% 0.00 in 526.00 W/m2
17:22 79.7 °F 53.9 °F 29.86 in South 7.0 mph 10.0 mph 41% 0.00 in 512.00 W/m2
17:27 79.6 °F 53.2 °F 29.85 in WSW 4.0 mph 11.0 mph 40% 0.00 in 501.00 W/m2
17:32 79.6 °F 53.8 °F 29.85 in SW 3.0 mph 7.0 mph 41% 0.00 in 482.00 W/m2
17:37 79.5 °F 53.8 °F 29.85 in WSW 8.0 mph 11.0 mph 41% 0.00 in 468.00 W/m2
17:42 79.4 °F 53.7 °F 29.85 in Calm   5.0 mph 41% 0.00 in 454.00 W/m2
17:47 79.3 °F 53.6 °F 29.85 in Calm   1.0 mph 41% 0.00 in 438.00 W/m2
17:52 79.2 °F 53.5 °F 29.85 in Calm     41% 0.00 in 422.00 W/m2
17:57 79.1 °F 54.1 °F 29.85 in Calm   6.0 mph 42% 0.00 in 404.00 W/m2
18:02 78.9 °F 53.2 °F 29.85 in Calm   6.0 mph 41% 0.00 in 390.00 W/m2
18:07 78.7 °F 54.3 °F 29.85 in Calm     43% 0.00 in 374.00 W/m2
18:12 78.6 °F 54.3 °F 29.85 in Calm     43% 0.00 in 360.00 W/m2
18:14 78.5 °F 54.2 °F 29.85 in Calm     43% 0.00 in 350.00 W/m2
18:19 78.4 °F 54.1 °F 29.85 in Calm   1.0 mph 43% 0.00 in 334.00 W/m2
18:24 78.3 °F 54.6 °F 29.85 in Calm   1.0 mph 44% 0.00 in 322.00 W/m2
18:29 78.1 °F 53.2 °F 29.84 in Calm   1.0 mph 42% 0.00 in 308.00 W/m2
18:34 78.0 °F 53.7 °F 29.85 in SSW 1.0 mph 1.0 mph 43% 0.00 in 290.00 W/m2
18:39 77.9 °F 54.9 °F 29.84 in Calm     45% 0.00 in 274.00 W/m2
18:44 77.8 °F 53.5 °F 29.84 in Calm     43% 0.00 in 258.00 W/m2
18:49 77.6 °F 54.6 °F 29.84 in Calm     45% 0.00 in 243.00 W/m2
18:54 77.5 °F 55.1 °F 29.84 in Calm   1.0 mph 46% 0.00 in 227.00 W/m2
18:59 77.3 °F 55.5 °F 29.84 in Calm     47% 0.00 in 211.00 W/m2
19:04 77.1 °F 55.9 °F 29.84 in Calm   1.0 mph 48% 0.00 in 197.00 W/m2
19:09 76.8 °F 55.7 °F 29.84 in Calm   1.0 mph 48% 0.00 in 179.00 W/m2
19:14 76.6 °F 55.5 °F 29.84 in Calm     48% 0.00 in 160.00 W/m2
19:19 76.4 °F 55.8 °F 29.84 in Calm   1.0 mph 49% 0.00 in 142.00 W/m2
19:24 76.0 °F 56.0 °F 29.84 in Calm     50% 0.00 in 123.00 W/m2
19:29 75.7 °F 55.8 °F 29.84 in Calm     50% 0.00 in 104.00 W/m2
19:34 75.5 °F 55.6 °F 29.84 in Calm     50% 0.00 in 90.00 W/m2
19:39 75.3 °F 55.9 °F 29.84 in Calm     51% 0.00 in 74.00 W/m2
19:44 75.1 °F 56.3 °F 29.84 in Calm     52% 0.00 in 58.00 W/m2
19:49 74.7 °F 55.9 °F 29.84 in Calm   1.0 mph 52% 0.00 in 46.00 W/m2
19:54 74.4 °F 55.7 °F 29.84 in Calm   1.0 mph 52% 0.00 in 35.00 W/m2
19:59 74.0 °F 56.3 °F 29.84 in Calm     54% 0.00 in 26.00 W/m2
20:04 73.5 °F 56.4 °F 29.84 in Calm     55% 0.00 in 19.00 W/m2
20:09 73.0 °F 55.9 °F 29.84 in Calm     55% 0.00 in 14.00 W/m2
20:14 72.7 °F 55.6 °F 29.84 in Calm     55% 0.00 in 12.00 W/m2
20:19 72.4 °F 55.8 °F 29.84 in Calm     56% 0.00 in 11.00 W/m2
20:24 72.2 °F 55.7 °F 29.84 in Calm   1.0 mph 56% 0.00 in 9.00 W/m2
20:29 72.0 °F 55.5 °F 29.84 in Calm   1.0 mph 56% 0.00 in 7.00 W/m2
20:34 71.8 °F 55.3 °F 29.84 in Calm     56% 0.00 in 5.00 W/m2
20:39 71.3 °F 55.3 °F 29.85 in Calm     57% 0.00 in 0.00 W/m2
20:44 70.7 °F 55.2 °F 29.84 in Calm     58% 0.00 in 0.00 W/m2
20:49 70.0 °F 54.6 °F 29.84 in Calm     58% 0.00 in 0.00 W/m2
20:54 69.4 °F 54.5 °F 29.85 in Calm     59% 0.00 in 0.00 W/m2
20:59 69.0 °F 54.1 °F 29.85 in Calm     59% 0.00 in 0.00 W/m2
21:05 68.6 °F 53.7 °F 29.85 in Calm     59% 0.00 in 0.00 W/m2
21:10 68.2 °F 53.8 °F 29.85 in Calm     60% 0.00 in 0.00 W/m2
21:15 67.8 °F 53.9 °F 29.85 in Calm     61% 0.00 in 0.00 W/m2
21:20 67.7 °F 53.8 °F 29.85 in Calm     61% 0.00 in 0.00 W/m2
21:25 67.4 °F 53.5 °F 29.85 in Calm     61% 0.00 in 0.00 W/m2
21:30 67.1 °F 53.7 °F 29.86 in Calm     62% 0.00 in 0.00 W/m2
21:35 67.1 °F 53.7 °F 29.86 in Calm     62% 0.00 in 0.00 W/m2
21:40 67.0 °F 53.6 °F 29.86 in Calm     62% 0.00 in 0.00 W/m2
21:45 66.8 °F 53.4 °F 29.86 in Calm     62% 0.00 in 0.00 W/m2
21:50 66.6 °F 53.2 °F 29.86 in Calm     62% 0.00 in 0.00 W/m2
21:55 66.5 °F 53.5 °F 29.86 in Calm     63% 0.00 in 0.00 W/m2
22:00 66.5 °F 53.5 °F 29.86 in Calm     63% 0.00 in 0.00 W/m2
22:05 66.4 °F 53.4 °F 29.86 in Calm     63% 0.00 in 0.00 W/m2
22:10 66.3 °F 53.3 °F 29.86 in SSW 1.0 mph 2.0 mph 63% 0.00 in 0.00 W/m2
22:15 66.3 °F 53.3 °F 29.86 in South 4.0 mph 6.0 mph 63% 0.00 in 0.00 W/m2
22:20 66.2 °F 53.2 °F 29.86 in South 5.0 mph 6.0 mph 63% 0.00 in 0.00 W/m2
22:25 66.1 °F 53.2 °F 29.86 in South 5.0 mph 6.0 mph 63% 0.00 in 0.00 W/m2
22:30 66.1 °F 53.2 °F 29.86 in Calm   6.0 mph 63% 0.00 in 0.00 W/m2
22:35 66.0 °F 53.1 °F 29.86 in SSE 1.0 mph 7.0 mph 63% 0.00 in 0.00 W/m2
22:40 66.0 °F 53.5 °F 29.86 in Calm   5.0 mph 64% 0.00 in 0.00 W/m2
22:45 65.9 °F 53.4 °F 29.86 in SE 4.0 mph 6.0 mph 64% 0.00 in 0.00 W/m2
22:50 65.8 °F 53.3 °F 29.86 in SE 6.0 mph 7.0 mph 64% 0.00 in 0.00 W/m2
22:55 65.8 °F 53.3 °F 29.86 in SE 7.0 mph 7.0 mph 64% 0.00 in 0.00 W/m2
23:00 65.7 °F 53.6 °F 29.86 in East 9.0 mph 11.0 mph 65% 0.00 in 0.00 W/m2
23:05 65.5 °F 53.4 °F 29.85 in Calm   11.0 mph 65% 0.00 in 0.00 W/m2
23:10 65.4 °F 53.3 °F 29.86 in ESE 5.0 mph 7.0 mph 65% 0.00 in 0.00 W/m2
23:15 65.4 °F 53.3 °F 29.86 in Calm   6.0 mph 65% 0.00 in 0.00 W/m2
23:20 65.5 °F 53.4 °F 29.86 in ESE 1.0 mph 8.0 mph 65% 0.00 in 0.00 W/m2
23:25 65.5 °F 53.4 °F 29.86 in Calm   12.0 mph 65% 0.00 in 0.00 W/m2
23:30 65.6 °F 53.5 °F 29.86 in East 5.0 mph 11.0 mph 65% 0.00 in 0.00 W/m2
23:35 65.7 °F 53.2 °F 29.85 in ESE 8.0 mph 15.0 mph 64% 0.00 in 0.00 W/m2
23:40 65.8 °F 53.3 °F 29.85 in ESE 6.0 mph 13.0 mph 64% 0.00 in 0.00 W/m2
23:45 65.8 °F 53.3 °F 29.85 in Calm   12.0 mph 64% 0.00 in 0.00 W/m2
23:50 65.9 °F 53.4 °F 29.85 in East 6.0 mph 9.0 mph 64% 0.00 in 0.00 W/m2
23:55 65.9 °F 53.4 °F 29.86 in East 2.0 mph 11.0 mph 64% 0.00 in 0.00 W/m2
Foresthill Weather
 WU-history PHP script courtesy of   Juneau County Weather.
powered by Cumulus v1.9.3 (1059)
Ambient Weather VWS v14.00
Top Contact Website Map Copyright © 2007 - 2018 Foresthillweather.com Never base important decisions on this or any weather information obtained from the Internet